Home > Time Zones > World Clock > Weather > U.S.A. > Napa > Past weeks

Flag for U.S.A. Weather past 2 weeks in Napa, California, U.S.A.

Now
62 °F

Mostly cloudy.


Feels Like: 62 °F
Forecast: 59 / 78 °F
Wind: 9 mph from Northwest

Location: Napa County Airport

Current Time: Jul 23, 2014 at 3:20:12 AM

Latest Report: Jul 23, 2014 at 2:54 AM


Visibility: 10 mi

Pressure: 30.07 "Hg

Humidity: 90%

Dew point: 59 °F

Location of NapaLocation

Historic Weather in Napa — Graph

°F

Napa temperature yesterday

Maximum temperature yesterday: 77 °F (at 4:54 PM)
Minimum temperature yesterday: 59 °F (at 12:54 AM)
Average temperature yesterday: 65 °F

Past Weeks' High & Low Weather Summary

 TemperatureHumidityPressure
High81 °F (Jul 15, 1:54 PM)100% (Jul 20, 3:54 AM)30.08 "Hg (Jul 20, 3:54 AM)
Low55 °F (Jul 9, 5:54 AM)45% (Jul 14, 1:54 PM)29.82 "Hg (Jul 9, 5:54 PM)
Average65 °F78%29.93 "Hg
* Reported Jul 8 1:54 AM — Jul 23 1:54 AM, Napa, Weather by CustomWeather, © 2014

Note: Actual official high and low records may vary slightly from our data, if they occured in-between our weather recording intervals... More about our weather records

Advertising

Napa weather history for previous 24 hours

 ConditionsComfort  
Time TempWeatherWind HumidityBarometerVisibility
1:54 AM
Jul 23
62 °FOvercast.9 mph90%30.08 "Hg10 mi
12:54 AM63 °FOvercast.9 mph87%30.08 "Hg10 mi
10:54 PM
Jul 22
64 °FPassing clouds.9 mph84%30.07 "Hg10 mi
9:54 PM65 °FOvercast.9 mph78%30.06 "Hg10 mi
8:54 PM66 °FOvercast.15 mph78%30.05 "Hg10 mi
7:54 PM67 °FPassing clouds.15 mph76%30.03 "Hg10 mi
6:54 PM71 °FSunny.16 mph63%30.02 "Hg10 mi
5:54 PM75 °FPartly sunny.15 mph54%30.01 "Hg10 mi
4:54 PM77 °FPartly sunny.16 mph56%30.01 "Hg10 mi
9:54 AM69 °FSunny.10 mph63%30.05 "Hg10 mi
8:54 AM66 °FScattered clouds.8 mph70%30.04 "Hg10 mi
7:54 AM62 °FSunny.3 mph86%30.04 "Hg10 mi
6:54 AM59 °FClear.5 mph90%30.02 "Hg10 mi
5:54 AM60 °FPassing clouds.8 mph90%30.01 "Hg10 mi
4:54 AM60 °FOvercast.10 mph90%30.00 "Hg10 mi
3:54 AM59 °FPassing clouds.10 mph93%30.00 "Hg10 mi
Weather by CustomWeather, © 2014

See weather overviewHow to use our weather pages